Regional Weather Roundup
Issued by NWS

Home | Current Version | Previous Version | Graphics & Text | Print | Product List | Glossary On
Versions: 1 2 3 4 5 6 7 8 9 10 11 12 13 14 15 16 17 18 19 20 21 22 23 24 25 26 27 28 29 30 31 32 33 34 35 36 37 38 39 40 41 42 43 44 45 46 47 48 49 50
000
ASUS43 KLMK 302110
RWRKY
KENTUCKY REGIONAL WEATHER ROUNDUP
NATIONAL WEATHER SERVICE LOUISVILLE KY
500 PM EDT MON MAR 30 2015

NOTE "FAIR" INDICATES FEW OR NO CLOUDS BELOW 12,000 FEET
WITH NO SIGNIFICANT WEATHER AND/OR OBSTRUCTIONS TO VISIBILITY.

KYZ001>023-026-027-061>063-070>075-302200-
WESTERN AND SOUTH CENTRAL KENTUCKY

CITY           SKY/WX    TMP DP  RH WIND       PRES   REMARKS
PADUCAH        SUNNY     66  28  24 S7        30.12F
HENDERSON      SUNNY     64  28  25 W7        30.12F
OWENSBORO      SUNNY     63  30  28 NW9       30.12F
HOPKINSVILLE   SUNNY     65  29  26 VRB7      30.12F
BOWLING GREEN  SUNNY     65  28  24 W8        30.12F
GLASGOW        SUNNY     63  29  27 W6        30.10F
$$

KYZ024-025-028>034-038-045-046-053-302200-
NORTH CENTRAL KENTUCKY

CITY           SKY/WX    TMP DP  RH WIND       PRES   REMARKS
LOUISVILLE/SDF MOSUNNY   65  26  23 NW7G21    30.09F
LOUISVILLE/LOU SUNNY     62  27  26 N9        30.09F
FORT KNOX      SUNNY     62  27  26 W12       30.08F
$$

KYZ035>037-039>044-047>052-055>060-089>105-302200-
NORTHEAST KENTUCKY

CITY           SKY/WX    TMP DP  RH WIND       PRES   REMARKS
LEXINGTON      SUNNY     60  26  27 NW12G21   30.08F
COVINGTON      PTSUNNY   59  27  29 W17G25    30.06F
FRANKFORT      SUNNY     60  25  26 W9        30.07F
$$

KYZ054-064>069-076>088-106>120-302200-
SOUTHEAST KENTUCKY

CITY           SKY/WX    TMP DP  RH WIND       PRES   REMARKS
JACKSON        MOSUNNY   60  26  27 VRB6      30.06F
LONDON         SUNNY     63  25  23 W9G17     30.07F
SOMERSET       SUNNY     61  30  31 W12       30.10S
MIDDLESBORO    SUNNY     63  32  31 NW10      30.07F
MONTICELLO     CLEAR     64  29  27 NW14      30.11F
$$




USA.gov is the U.S. government's official web portal to all federal, state and local government web resources and services.